Date String (YYYY-MM-DD hh:mm:ss) UTC,Instrument flags,Ambient pressure (hPa),Sample flow (lpm),Bypass flow (lpm),Sample temperature (°C),Ambient temperature (°C),ASC tube jacket temperature (°C),LED temperature (°C),Box temperature (°C),Sample RH (%),Span deviation,Mass concentration (μg/m³),Mass concentration (μg/m³),Mass concentration (μg/m³)
DateTimeUTC,F1_M11,P_M11,Q1_M11,Q2_M11,T1_M11,T2_M11,T3_M11,T4_M11,T5_M11,U1_M11,ZSPAN_M11,X0_M11,X2_M11,X1_M11
2023-02-14 17:00:00,,0801.9,5.01,0.00,22.5,20.9,00.0,31.4,24.1,08.5,0000.0,0003.42,0002.05,0001.74
2023-02-14 17:01:00,,0801.9,5.00,0.00,22.5,20.8,00.0,31.4,24.1,08.5,0000.0,0004.65,0002.10,0001.74
2023-02-14 17:02:00,,0802.0,4.98,0.00,22.4,20.7,00.0,31.4,24.1,08.3,0000.0,0005.48,0002.11,0001.74
2023-02-14 17:03:00,,0802.0,5.00,0.00,22.4,20.7,00.0,31.4,24.0,08.6,0000.0,0005.48,0002.10,0001.74
2023-02-14 17:04:00,,0802.0,5.01,0.00,22.4,20.6,00.0,31.3,24.0,08.3,0000.0,0005.51,0002.13,0001.75
2023-02-14 17:05:00,,0802.1,5.00,0.00,22.4,20.6,00.0,31.3,24.0,08.2,0000.0,0005.54,0002.15,0001.76
2023-02-14 17:06:00,,0802.1,5.00,0.00,22.3,20.6,00.0,31.3,24.0,08.3,0000.0,0005.56,0002.16,0001.76
2023-02-14 17:07:00,,0802.2,5.00,0.00,22.3,20.5,00.0,31.3,23.9,08.3,0000.0,0005.56,0002.16,0001.75
2023-02-14 17:08:00,,0802.2,5.00,0.00,22.3,20.5,00.0,31.3,23.9,08.2,0000.0,0005.54,0002.19,0001.74
2023-02-14 17:09:00,,0802.2,5.01,0.00,22.3,20.5,00.0,31.2,23.9,08.3,0000.0,0005.56,0002.19,0001.73
2023-02-14 17:10:00,,0802.3,5.01,0.00,22.2,20.6,00.0,31.2,23.9,08.3,0000.0,0005.52,0002.15,0001.72
2023-02-14 17:11:00,,0802.2,4.97,0.00,22.3,21.9,00.0,31.2,24.2,08.0,0000.0,0005.61,0002.16,0001.72
2023-02-14 17:12:00,,0802.2,4.99,0.00,22.5,23.1,00.0,31.2,24.5,08.2,0000.0,0004.96,0002.17,0001.70
2023-02-14 17:13:00,,0802.1,5.00,0.00,22.6,23.0,00.0,31.2,24.6,08.1,0000.0,0003.87,0002.17,0001.70
2023-02-14 17:14:00,,0802.0,4.99,0.00,22.6,22.5,00.0,31.3,24.5,08.2,0000.0,0004.56,0002.19,0001.70
2023-02-14 17:15:00,,0802.1,4.99,0.00,22.6,22.1,00.0,31.3,24.4,08.3,0000.0,0004.62,0002.20,0001.69
2023-02-14 17:16:00,,0802.2,4.99,0.00,22.6,21.8,00.0,31.3,24.3,08.2,0000.0,0004.69,0002.22,0001.70
2023-02-14 17:17:00,,0802.3,4.99,0.00,22.6,21.5,00.0,31.4,24.3,08.3,0000.0,0004.69,0002.22,0001.69
2023-02-14 17:18:00,,0802.4,4.98,0.00,22.5,21.3,00.0,31.4,24.2,08.3,0000.0,0004.81,0002.22,0001.68
2023-02-14 17:19:00,,0802.3,4.99,0.00,22.5,21.1,00.0,31.4,24.2,08.3,0000.0,0004.91,0002.21,0001.68
2023-02-14 17:20:00,,0802.3,5.01,0.00,22.5,21.0,00.0,31.4,24.1,08.5,0000.0,0004.70,0002.20,0001.68
2023-02-14 17:21:00,,0802.1,4.98,0.00,22.5,20.9,00.0,31.4,24.1,08.4,0000.0,0004.61,0002.19,0001.68
2023-02-14 17:22:00,,0802.2,5.00,0.00,22.4,20.8,00.0,31.4,24.0,08.5,0000.0,0004.55,0002.19,0001.68
2023-02-14 17:23:00,,0802.2,5.00,0.00,22.4,20.7,00.0,31.4,24.0,08.7,0000.0,0004.32,0002.16,0001.67
2023-02-14 17:24:00,,0802.3,5.01,0.00,22.4,20.6,00.0,31.3,24.0,08.3,0000.0,0004.28,0002.15,0001.67
2023-02-14 17:25:00,,0802.2,5.00,0.00,22.3,20.5,00.0,31.3,23.9,08.2,0000.0,0003.59,0002.12,0001.66
2023-02-14 17:26:00,,0802.2,4.99,0.00,22.3,20.4,00.0,31.3,23.9,08.5,0000.0,0003.61,0002.13,0001.65
2023-02-14 17:27:00,,0802.2,5.01,0.00,22.2,20.3,00.0,31.3,23.9,08.6,0000.0,0003.61,0002.11,0001.62
2023-02-14 17:28:00,,0802.2,5.01,0.00,22.2,20.3,00.0,31.3,23.8,08.8,0000.0,0003.62,0002.10,0001.61
2023-02-14 17:29:00,,0802.2,5.01,0.00,22.2,20.3,00.0,31.2,23.8,08.9,0000.0,0003.50,0002.07,0001.59
2023-02-14 17:30:00,,0802.2,5.00,0.00,22.2,20.3,00.0,31.2,23.8,08.7,0000.0,0003.35,0002.05,0001.59
2023-02-14 17:31:00,,0802.2,4.97,0.00,22.1,20.3,00.0,31.2,23.8,08.7,0000.0,0003.25,0002.06,0001.60
2023-02-14 17:32:00,,0802.2,5.00,0.00,22.1,20.5,00.0,31.2,23.8,08.6,0000.0,0003.29,0002.08,0001.59
2023-02-14 17:33:00,,0802.2,5.02,0.00,22.2,21.7,00.0,31.1,24.1,08.6,0000.0,0003.24,0002.06,0001.58
2023-02-14 17:34:00,,0802.2,5.03,0.00,22.4,22.9,00.0,31.1,24.4,08.7,0000.0,0003.34,0002.06,0001.59
2023-02-14 17:35:00,,0802.2,5.02,0.00,22.4,22.5,00.0,31.2,24.5,08.6,0000.0,0003.37,0002.05,0001.58
2023-02-14 17:36:00,,0802.2,5.01,0.00,22.5,22.1,00.0,31.2,24.4,08.6,0000.0,0003.63,0002.07,0001.57
2023-02-14 17:37:00,,0802.2,4.99,0.00,22.5,21.8,00.0,31.3,24.3,08.6,0000.0,0003.50,0002.04,0001.57
2023-02-14 17:38:00,,0802.2,5.00,0.00,22.5,21.5,00.0,31.3,24.2,08.2,0000.0,0003.39,0002.02,0001.57
2023-02-14 17:39:00,,0802.2,5.00,0.00,22.4,21.3,00.0,31.3,24.1,08.3,0000.0,0003.34,0001.97,0001.56
2023-02-14 17:40:00,,0802.3,5.00,0.00,22.4,21.1,00.0,31.3,24.1,08.5,0000.0,0003.38,0001.97,0001.57
2023-02-14 17:41:00,,0802.3,5.00,0.00,22.4,21.0,00.0,31.3,24.1,08.4,0000.0,0003.43,0002.00,0001.57
2023-02-14 17:42:00,,0802.3,5.01,0.00,22.4,20.9,00.0,31.3,24.1,08.7,0000.0,0003.62,0002.02,0001.56
2023-02-14 17:43:00,,0802.2,5.00,0.00,22.4,20.8,00.0,31.3,24.1,08.6,0000.0,0004.00,0002.09,0001.58
2023-02-14 17:44:00,,0802.3,5.01,0.00,22.4,20.8,00.0,31.3,24.1,08.4,0000.0,0004.08,0002.10,0001.58
2023-02-14 17:45:00,,0802.2,5.00,0.00,22.3,20.7,00.0,31.3,24.0,08.5,0000.0,0003.98,0002.11,0001.58
2023-02-14 17:46:00,,0802.2,4.98,0.00,22.3,20.7,00.0,31.2,24.0,08.5,0000.0,0004.12,0002.18,0001.60
2023-02-14 17:47:00,,0802.2,5.00,0.00,22.3,20.6,00.0,31.2,24.0,08.4,0000.0,0003.85,0002.15,0001.60
2023-02-14 17:48:00,,0802.2,5.01,0.00,22.3,20.6,00.0,31.2,23.9,08.4,0000.0,0003.87,0002.16,0001.59
2023-02-14 17:49:00,,0802.2,5.01,0.00,22.2,20.5,00.0,31.2,23.9,08.3,0000.0,0003.88,0002.15,0001.58
2023-02-14 17:50:00,,0802.2,5.00,0.00,22.2,20.5,00.0,31.2,23.9,08.3,0000.0,0003.89,0002.15,0001.59
2023-02-14 17:51:00,,0802.1,5.01,0.00,22.2,20.5,00.0,31.2,23.8,08.1,0000.0,0003.82,0002.15,0001.60
2023-02-14 17:52:00,,0802.2,4.99,0.00,22.2,20.4,00.0,31.2,23.8,07.4,0000.0,0003.98,0002.14,0001.60
2023-02-14 17:53:00,,0802.2,4.98,0.00,22.1,20.4,00.0,31.2,23.8,07.5,0000.0,0004.12,0002.13,0001.60
2023-02-14 17:54:00,,0802.2,4.99,0.00,22.1,20.4,00.0,31.1,23.8,08.1,0000.0,0003.65,0002.00,0001.58
2023-02-14 17:55:00,,0802.1,5.00,0.00,22.1,20.4,00.0,31.1,23.8,08.2,0000.0,0003.55,0001.94,0001.56
2023-02-14 17:56:00,,0801.8,4.99,0.00,22.1,20.4,00.0,31.1,23.8,08.6,0000.0,0003.61,0001.95,0001.56
2023-02-14 17:57:00,,0802.2,5.00,0.00,22.1,20.4,00.0,31.1,23.8,08.5,0000.0,0003.52,0001.95,0001.59
2023-02-14 17:58:00,,0802.3,5.01,0.00,22.1,20.4,00.0,31.1,23.7,08.8,0000.0,0003.63,0002.02,0001.66
2023-02-14 17:59:00,,0802.3,5.01,0.00,22.1,21.0,00.0,31.1,23.9,09.9,0000.0,0003.80,0002.15,0001.76
